Hastings, NE

11:21 AM CST on February 13, 2016 (GMT -0600)
Hastings Municipal

Weather History for KHSI - October, 2013

Change the Weather History Date:

Monday, October 7, 2013

  Actual Average Record
Temperature  
Mean Temperature 57 °F 57 °F  
Max Temperature 75 °F 68 °F 90 °F (1980)
Min Temperature 39 °F 45 °F 22 °F (1952)
Degree Days  
Heating Degree Days 8 9  
Month to date heating degree days 45 57  
Since 1 July heating degree days 80 153  
Cooling Degree Days 0 1  
Month to date cooling degree days 11 7  
Year to date cooling degree days 1154 1070  
Growing Degree Days 7 (Base 50)    
Moisture  
Dew Point 37 °F    
Average Humidity 51    
Maximum Humidity 79    
Minimum Humidity 23    
Precipitation  
Precipitation 0.00 in 0.06 in 1.28 in (2007)
Month to date precipitation 4.14 0.49  
Year to date precipitation 23.46 23.71  
Snow  
Snow 0.00 in 0.00 in - ()
Month to date snowfall 0.0 0.1  
Since 1 July snowfall 0.0 0.3  
Since 1 September snowfall 0.0 0.3  
Snow Depth 0.00 in    
Sea Level Pressure  
Sea Level Pressure 30.05 in    
Wind  
Wind Speed 7 mph (SW)    
Max Wind Speed 14 mph    
Max Gust Speed 20 mph    
Visibility 10 miles    
Events      
T = Trace of Precipitation, MM = Missing Value Source: NWS Daily Summary

Daily Weather History Graph

Daily Weather History Graph

Search for Another Location

Airport or City:

Trip Planner

Search our weather history database for the weather conditions in past years. The results will help you decide how hot, cold, wet, or windy it might be!

Date:

Astronomy

Oct. 07, 2013 Rise Set
Actual Time 7:36 AM CDT 7:05 PM CDT
Civil Twilight 7:09 AM CDT 7:32 PM CDT
Nautical Twilight 6:37 AM CDT 8:04 PM CDT
Astronomical Twilight 6:05 AM CDT 8:36 PM CDT
Moon 10:29 AM CDT (10/7) 8:50 PM CDT (10/7)
Length of Visible Light 12h 23m
Length of Day
11h 28m
Waxing Crescent, 9% of the Moon is Illuminated
Oct 7
Waxing Crescent
Oct 11
First Quarter
Oct 18
Full
Oct 26
Last Quarter
Nov 3
New

Hourly Weather History & Observations

Time (CDT) Temp. Windchill Dew Point Humidity Pressure Visibility Wind Dir Wind Speed Gust Speed Precip Events Conditions
12:53 AM 43.0 °F 39.5 °F 35.1 °F 74% 30.10 in 10.0 mi WNW 5.8 mph - N/A   Clear
1:53 AM 42.1 °F 39.2 °F 35.1 °F 76% 30.10 in 10.0 mi West 4.6 mph - N/A   Clear
2:53 AM 41.0 °F 39.0 °F 35.1 °F 79% 30.10 in 10.0 mi West 3.5 mph - N/A   Clear
3:53 AM 41.0 °F 38.0 °F 35.1 °F 79% 30.09 in 10.0 mi West 4.6 mph - N/A   Clear
4:53 AM 41.0 °F 37.1 °F 35.1 °F 79% 30.09 in 10.0 mi West 5.8 mph - N/A   Clear
5:53 AM 39.9 °F - 34.0 °F 79% 30.09 in 10.0 mi Calm Calm - N/A   Clear
6:53 AM 39.9 °F 34.5 °F 34.0 °F 79% 30.11 in 10.0 mi WSW 8.1 mph - N/A   Clear
7:53 AM 39.0 °F 34.8 °F 34.0 °F 82% 30.12 in 10.0 mi WSW 5.8 mph - N/A   Clear
8:53 AM 44.1 °F 42.5 °F 37.0 °F 76% 30.12 in 10.0 mi SW 3.5 mph - N/A   Clear
9:53 AM 52.0 °F - 39.9 °F 63% 30.12 in 10.0 mi WSW 5.8 mph - N/A   Clear
10:53 AM 61.0 °F - 37.0 °F 41% 30.11 in 10.0 mi SW 6.9 mph - N/A   Clear
11:53 AM 66.0 °F - 37.0 °F 34% 30.09 in 10.0 mi SW 9.2 mph - N/A   Clear
12:53 PM 69.1 °F - 37.0 °F 31% 30.07 in 10.0 mi WSW 10.4 mph 18.4 mph N/A   Clear
1:53 PM 72.0 °F - 37.9 °F 29% 30.04 in 10.0 mi SW 11.5 mph 17.3 mph N/A   Clear
2:53 PM 73.9 °F - 37.9 °F 27% 30.01 in 10.0 mi SW 8.1 mph 19.6 mph N/A   Clear
3:53 PM 73.9 °F - 37.9 °F 27% 30.00 in 10.0 mi South 9.2 mph 18.4 mph N/A   Clear
4:53 PM 75.0 °F - 36.0 °F 24% 29.99 in 10.0 mi SSW 9.2 mph - N/A   Clear
5:53 PM 73.9 °F - 35.1 °F 24% 29.97 in 10.0 mi South 10.4 mph - N/A   Clear
6:53 PM 69.1 °F - 37.9 °F 32% 29.97 in 10.0 mi SSE 4.6 mph - N/A   Clear
7:53 PM 64.9 °F - 39.0 °F 39% 29.99 in 10.0 mi SSE 5.8 mph - N/A   Clear
8:53 PM 62.1 °F - 39.0 °F 43% 29.99 in 10.0 mi South 9.2 mph - N/A   Clear
9:53 PM 57.9 °F - 39.0 °F 49% 29.99 in 10.0 mi South 9.2 mph - N/A   Clear
10:53 PM 57.0 °F - 37.9 °F 49% 29.97 in 10.0 mi South 8.1 mph - N/A   Clear
11:53 PM 57.0 °F - 37.0 °F 47% 29.96 in 10.0 mi South 8.1 mph - N/A   Clear